Simultaneous Nadir Overpasses (SNOs) Predictions

Prediction of SNOs between GOES-16 and TERRA Satellite Orbit:

Table of predicted SNOs for the next 14.0 days since TLE Epoch: 2/16/2019
Index Date Time (GOES-16) GOES-16 Lat,Lon TERRA Lat,Lon Distance(km) Time Diff (sec)
1 02/17/2019 15:26:43 0.01, -75.20 -0.31, -73.78 162.87 80
2 02/18/2019 03:48:07 -0.01, -75.19 -0.81, -78.96 428.46 80
3 02/19/2019 15:14:31 0.01, -75.21 -0.90, -70.81 499.24 80
4 02/20/2019 03:35:56 -0.01, -75.20 -0.16, -76.01 91.87 80
5 02/22/2019 03:21:04 -0.01, -75.21 0.42, -73.05 245.67 80
6 02/22/2019 15:42:20 0.01, -75.23 0.65, -78.21 339.49 80
7 02/24/2019 15:30:09 0.01, -75.25 0.01, -75.26 1.36 80
8 02/26/2019 15:20:38 0.01, -75.27 -0.63, -72.31 337.49 80
9 02/27/2019 03:42:02 -0.01, -75.27 -0.48, -77.50 252.83 80
10 03/01/2019 03:27:11 -0.00, -75.30 0.16, -74.54 86.43 80
11 03/01/2019 15:48:27 0.00, -75.32 0.92, -79.71 498.51 80




NCC Satellite Simultaneous Nadir Overpasses (SNOs) Prediction Service
